User: anonymous   Login
Location: Caltech
(34.1382°N, 118.1253°W)
Time: 13:21:19
(UTC-07:00)
Language:

Cosmos 2251 Rocket - Orbit

View from above orbital plane
View from above orbital plane
View from above satellite
View from above satellite

Ground track
Ground track

The orbit data is extracted from the following two-line orbital elements,

1 22676U 93036B   16150.61287412  .00000155  00000-0  65025-4 0  9991
2 22676  74.0407 163.3590 0020143 283.4422  76.4485 14.33872994200364
Epoch (UTC): 29 May 2016 14:42:32
Eccentricity: 0.0020143
inclination: 74.0407°
perigee height: 764 km
apogee height: 793 km
right ascension of ascending node: 163.3590°
argument of perigee: 283.4422°
revolutions per day: 14.33872994
mean anomaly at epoch: 76.4485°
orbit number at epoch: 20036

The dashed part of the orbit path shows where the satellite is in the earth's shadow,  

DLR